Terminal Aerodrome Forecast
Issued by NWS Tiyan, Guam

Home | Current Version | Previous Version | Text Only | Print | Product List | Glossary On
Versions: 1 2 3 4 5 6 7 8 9 10 11 12
000
FTPQ31 PGUM 231137
TAFGUM
TAF
PGUM 231137Z 2312/2418 07008KT P6SM VCSH FEW020 SCT050
     FM232300 07014G20KT P6SM VCSH FEW020=

USA.gov is the U.S. government's official web portal to all federal, state and local government web resources and services.